Location: Spangle
(47.4302°N, 117.3779°W)
Time: 00:42:17
(UTC+00:00)

Envisat - Pass Details

Date: 22 April 2026
Orbit: 761 x 762 km, 98.4° (Epoch: 19 May)

Event Time Altitude Azimuth Distance (km) Brightness Sun altitude
Rises 10:12:16 0° 17° (NNE) 3,236 7.4 -22.2°
Reaches altitude 10° 10:14:38 10° 22° (NNE) 2,305 6.5 -21.9°
Maximum altitude 10:19:38 56° 100° (E) 908 3.5 -21.4°
Enters shadow 10:22:03 29° 166° (SSE) 1,375 4.0 -21.1°
